Location: Assche-ter-Heiden
(50.9174°N, 4.1574°E)
Time: 17:54:57
(UTC+00:00)

MOS 1-B - Pass Details

Date: 20 January 2020
Orbit: 905 x 913 km, 99.4° (Epoch: 18 February)

Event Time Altitude Azimuth Distance (km) Brightness Sun altitude
Rises 05:10:44 0° 16° (NNE) 3,548 7.6 -22.3°
Reaches altitude 10° 05:13:09 10° 18° (NNE) 2,603 6.9 -21.9°
Maximum altitude 05:18:59 82° 105° (ESE) 925 4.4 -21.0°
Drops below altitude 10° 05:24:46 10° 194° (SSW) 2,590 6.7 -20.1°
Sets 05:27:10 0° 196° (SSW) 3,528 7.4 -19.8°
